AJT1175 KJQF-KATL

Flight info

Callsign AJT1175
Flight time N/A
Altitude 28000
Route KER4 NEANO ODF LOGEN GSU
Aircraft B722/M-SDFGHRWY/C

Departure

Time 2026-04-27 23:46
Airport Concord-Padgett Regional Airport (KJQF)

Arrival

Time N/A
Airport Hartsfield Jackson Atlanta International Airport (KATL)
Time Latitude Longitude Altitude Speed Heading
2026-04-27 23:31 35.38754 -80.71109 686 ft 0 kts 280°
2026-04-27 23:43 35.38755 -80.71115 687 ft 4 kts 277°
2026-04-27 23:43 35.38749 -80.71131 683 ft 2 kts 196°
2026-04-27 23:43 35.38727 -80.71110 686 ft 9 kts 107°
2026-04-27 23:43 35.38805 -80.71041 687 ft 24 kts 14°
2026-04-27 23:44 35.38994 -80.71002 691 ft 30 kts 11°
2026-04-27 23:44 35.39209 -80.70955 698 ft 33 kts
2026-04-27 23:44 35.39443 -80.70902 715 ft 35 kts 11°
2026-04-27 23:44 35.39687 -80.70848 721 ft 35 kts 10°
2026-04-27 23:45 35.39780 -80.70769 721 ft 17 kts 92°
2026-04-27 23:45 35.39697 -80.70704 716 ft 23 kts 186°
2026-04-27 23:45 35.39446 -80.70761 712 ft 66 kts 189°
2026-04-27 23:45 35.38670 -80.70938 698 ft 156 kts 190°
2026-04-27 23:46 35.37457 -80.71217 1184 ft 193 kts 191°
2026-04-27 23:46 35.36088 -80.71598 2023 ft 211 kts 192°
2026-04-27 23:46 35.34596 -80.72103 2636 ft 230 kts 198°
2026-04-27 23:46 35.33229 -80.73159 3481 ft 237 kts 221°
2026-04-27 23:47 35.32257 -80.74895 4547 ft 262 kts 244°
2026-04-27 23:47 35.31776 -80.77137 5904 ft 281 kts 261°
2026-04-27 23:47 35.31623 -80.79465 7706 ft 266 kts 264°
2026-04-27 23:47 35.31472 -80.81701 9479 ft 258 kts 263°
2026-04-27 23:48 35.31285 -80.83884 10846 ft 265 kts 263°
2026-04-27 23:48 35.31049 -80.86146 12082 ft 265 kts 259°
2026-04-27 23:48 35.30470 -80.88223 13760 ft 254 kts 247°
2026-04-27 23:48 35.29540 -80.90180 14476 ft 280 kts 239°
2026-04-27 23:49 35.28382 -80.92250 14965 ft 306 kts 239°
2026-04-27 23:49 35.27167 -80.94490 15458 ft 328 kts 240°
2026-04-27 23:49 35.25896 -80.96955 15771 ft 348 kts 241°
2026-04-27 23:49 35.24577 -80.99488 16082 ft 370 kts 239°
2026-04-27 23:50 35.23107 -81.02156 16112 ft 392 kts 239°
2026-04-27 23:50 35.21650 -81.04806 16182 ft 350 kts 239°
2026-04-27 23:50 35.20346 -81.07186 15968 ft 320 kts 239°
2026-04-27 23:50 35.19302 -81.09401 16275 ft 277 kts 253°
2026-04-27 23:51 35.18908 -81.11688 17136 ft 281 kts 265°
2026-04-27 23:51 35.18720 -81.14143 17718 ft 299 kts 269°
2026-04-27 23:51 35.18672 -81.16779 18032 ft 323 kts 271°
2026-04-27 23:51 35.18636 -81.19557 18607 ft 335 kts 271°
2026-04-27 23:52 35.18621 -81.22464 19024 ft 348 kts 271°
2026-04-27 23:52 35.18619 -81.25462 19468 ft 359 kts 272°
2026-04-27 23:52 35.18633 -81.28565 19836 ft 369 kts 273°
2026-04-27 23:52 35.18662 -81.31724 20318 ft 375 kts 274°
2026-04-27 23:53 35.18709 -81.34933 20795 ft 380 kts 274°
2026-04-27 23:53 35.18774 -81.38162 21270 ft 374 kts 274°
2026-04-27 23:53 35.18850 -81.41345 21750 ft 380 kts 275°
2026-04-27 23:53 35.18945 -81.44584 22242 ft 384 kts 275°
2026-04-27 23:54 35.19055 -81.47858 22736 ft 387 kts 275°
2026-04-27 23:54 35.19181 -81.51160 22962 ft 391 kts 276°
2026-04-27 23:54 35.19321 -81.54468 22967 ft 389 kts 276°
2026-04-27 23:54 35.19474 -81.57769 22983 ft 389 kts 276°
2026-04-27 23:55 35.19638 -81.61063 23025 ft 387 kts 276°
2026-04-27 23:55 35.19813 -81.64351 23261 ft 389 kts 276°
2026-04-27 23:55 35.19997 -81.67654 23530 ft 390 kts 277°
2026-04-27 23:55 35.20193 -81.70970 23787 ft 391 kts 278°
2026-04-27 23:56 35.20397 -81.74291 24010 ft 393 kts 278°
2026-04-27 23:56 35.20587 -81.77634 24233 ft 396 kts 276°
2026-04-27 23:56 35.20256 -81.81000 24429 ft 407 kts 257°
2026-04-27 23:56 35.19042 -81.84160 24642 ft 415 kts 244°
2026-04-27 23:57 35.17575 -81.87203 24872 ft 414 kts 248°
2026-04-27 23:57 35.16492 -81.90442 25110 ft 411 kts 255°
2026-04-27 23:57 35.15613 -81.93762 25350 ft 411 kts 257°
2026-04-27 23:57 35.14785 -81.97115 25587 ft 413 kts 257°
2026-04-27 23:58 35.13938 -82.00477 25828 ft 415 kts 256°
2026-04-27 23:58 35.12881 -82.03773 26055 ft 421 kts 248°
2026-04-27 23:58 35.11443 -82.06927 26292 ft 433 kts 243°
2026-04-27 23:58 35.09838 -82.10126 26537 ft 449 kts 242°
2026-04-27 23:59 35.08180 -82.13412 26830 ft 461 kts 242°
2026-04-27 23:59 35.06512 -82.16801 27133 ft 469 kts 243°
2026-04-27 23:59 35.04874 -82.20254 27441 ft 470 kts 244°
2026-04-27 23:59 35.03280 -82.23746 27749 ft 472 kts 244°
2026-04-28 00:00 35.01731 -82.27281 28055 ft 473 kts 245°
2026-04-28 00:00 35.00226 -82.30864 28191 ft 476 kts 246°
2026-04-28 00:00 34.97349 -82.38140 28218 ft 476 kts 248°
2026-04-28 00:01 34.94699 -82.45534 28225 ft 475 kts 251°
2026-04-28 00:01 34.92425 -82.53091 28160 ft 475 kts 253°
2026-04-28 00:02 34.91345 -82.56884 27956 ft 473 kts 253°
2026-04-28 00:02 34.90263 -82.60660 27747 ft 471 kts 253°
2026-04-28 00:02 34.89168 -82.64415 27541 ft 470 kts 253°
2026-04-28 00:02 34.88058 -82.68152 27285 ft 469 kts 253°
2026-04-28 00:03 34.86942 -82.71876 26957 ft 467 kts 253°
2026-04-28 00:03 34.85830 -82.75573 26599 ft 464 kts 253°
2026-04-28 00:03 34.84726 -82.79246 26230 ft 460 kts 253°
2026-04-28 00:03 34.83636 -82.82884 25870 ft 457 kts 253°
2026-04-28 00:04 34.82553 -82.86508 25516 ft 454 kts 253°
2026-04-28 00:04 34.80405 -82.93704 24816 ft 450 kts 253°
2026-04-28 00:04 34.79339 -82.97275 24472 ft 448 kts 253°
2026-04-28 00:05 34.78275 -83.00833 24223 ft 447 kts 253°
2026-04-28 00:05 34.77213 -83.04383 24218 ft 448 kts 253°
2026-04-28 00:05 34.76143 -83.07958 24224 ft 449 kts 253°
2026-04-28 00:05 34.75437 -83.10320 24223 ft 449 kts 253°
2026-04-28 00:06 34.74009 -83.15090 24234 ft 449 kts 253°
2026-04-28 00:06 34.72945 -83.18648 24224 ft 447 kts 253°
2026-04-28 00:06 34.71881 -83.22203 24221 ft 448 kts 253°
2026-04-28 00:06 34.70816 -83.25760 24223 ft 448 kts 253°
2026-04-28 00:07 34.69752 -83.29308 24219 ft 447 kts 253°
2026-04-28 00:07 34.68690 -83.32865 24219 ft 448 kts 253°
2026-04-28 00:07 34.67585 -83.36401 24218 ft 447 kts 252°
2026-04-28 00:07 34.66464 -83.39924 24223 ft 449 kts 252°
2026-04-28 00:08 34.65001 -83.43281 24205 ft 455 kts 237°
2026-04-28 00:08 34.62681 -83.45937 24198 ft 465 kts 218°
2026-04-28 00:08 34.59848 -83.47875 24204 ft 470 kts 210°
2026-04-28 00:08 34.56832 -83.49430 24194 ft 473 kts 205°
2026-04-28 00:09 34.53778 -83.50818 23174 ft 460 kts 204°
2026-04-28 00:09 34.50908 -83.52113 21715 ft 422 kts 204°
2026-04-28 00:09 34.48260 -83.53301 20419 ft 392 kts 204°
2026-04-28 00:09 34.45882 -83.54639 19179 ft 364 kts 216°
2026-04-28 00:10 34.43925 -83.56436 17902 ft 344 kts 225°
2026-04-28 00:10 34.42405 -83.58554 16568 ft 326 kts 240°
2026-04-28 00:10 34.41293 -83.60890 15296 ft 315 kts 245°
2026-04-28 00:10 34.40310 -83.63226 14298 ft 303 kts 246°
2026-04-28 00:11 34.39393 -83.65336 14210 ft 263 kts 242°
2026-04-28 00:11 34.38724 -83.66483 14199 ft 241 kts 235°
2026-04-28 00:11 34.37255 -83.68248 14071 ft 210 kts 224°